Regional Weather Roundup
Issued by NWS Northern Indiana

Home | Current Version | Previous Version | Text Only | Print | Product List | Glossary Off
Versions: 1 2 3 4 5 6 7 8 9 10 11 12 13 14 15 16 17 18 19 20 21 22 23 24 25 26 27 28 29 30 31 32 33 34 35 36 37 38 39 40 41 42 43 44 45 46 47 48 49 50

000
ASUS43 KIWX 040610
RWRIWX

KIWX WEATHER ROUNDUP
NATIONAL WEATHER SERVICE NORTHERN INDIANA
200 AM EDT SAT JUL 04 2015

NOTE: "FAIR" INDICATES FEW OR NO CLOUDS BELOW 12,000 FEET WITH NO
SIGNIFICANT WEATHER AND/OR OBSTRUCTIONS TO VISIBILITY.

* THESE STATIONS ARE NOT UNDER NWS QUALITY CONTROL. THEY ALSO MAY NOT
  REPORT WEATHER SUCH AS PRECIPITATION OR FOG.

INZ001>027-040700-
NORTHERN INDIANA

CITY           SKY/WX    TMP DP  RH WIND       PRES   REMARKS
GARY*          CLEAR    N/A N/A N/A CALM      29.96S FOG
VALPARAISO     CLEAR     57  55  93 CALM      29.96S
6HR MIN TEMP:  56; 6HR MAX TEMP:  70;

MICHIGAN CITY* CLEAR     54  54 100 CALM      29.96S FOG
LAPORTE*       CLEAR     56  56 100 CALM      29.96S FOG
6HR MIN TEMP:  56; 6HR MAX TEMP:  70;

KNOX*          CLEAR     55  55 100 CALM      29.95S
SOUTH BEND     CLEAR     59  54  83 CALM      29.96S
6HR MIN TEMP:  59; 6HR MAX TEMP:  72;

GOSHEN         CLEAR     58  56  93 CALM      29.96R FOG
6HR MIN TEMP:  58; 6HR MAX TEMP:  74;

MONTICELLO*    CLEAR     62  59  93 CALM      29.95R
6HR MIN TEMP:  61; 6HR MAX TEMP:  73;

LOGANSPORT*    CLEAR     59  55  88 N3        29.96S
ROCHESTER*     CLEAR     63  61  94 CALM      29.96R
WARSAW*          N/A     55  55 100 CALM      29.96R FOG
ANGOLA*          N/A     57  46  67 CALM      29.95S
FORT WAYNE     MOCLDY    61  57  87 CALM      29.95S
6HR MIN TEMP:  61; 6HR MAX TEMP:  72;

HUNTINGTON*    CLEAR     60  59  97 CALM      29.95S FOG
6HR MIN TEMP:  59; 6HR MAX TEMP:  71;

PERU/GRISSOM   CLEAR     63  60  88 CALM      29.94S
6HR MIN TEMP:  63; 6HR MAX TEMP:  73;

MARION*        CLEAR     60  59  96 CALM      29.95S FOG
6HR MIN TEMP:  52; 6HR MAX TEMP:  78;


$$
INZ028>050-040700-
CENTRAL INDIANA

CITY           SKY/WX    TMP DP  RH WIND       PRES   REMARKS
LAFAYETTE      CLEAR     63  58  83 CALM      29.95R
6HR MIN TEMP:  61; 6HR MAX TEMP:  73;

KOKOMO*        CLEAR     63  59  88 CALM      29.94S
6HR MIN TEMP:  63; 6HR MAX TEMP:  73;

MUNCIE*        PTCLDY    64  62  93 CALM      29.94S
6HR MIN TEMP:  64; 6HR MAX TEMP:  73;

INDIANAPOLIS   CLOUDY    68  63  84 NW6       29.92S
6HR MIN TEMP:  68; 6HR MAX TEMP:  73;


$$
MIZ043>046-050>051-056>058-064>065-071>073-077>080-040700-
SOUTHWEST LOWER MICHIGAN

CITY           SKY/WX    TMP DP  RH WIND       PRES   REMARKS
BATTLE CREEK   CLEAR     58  54  86 CALM      29.96S
6HR MIN TEMP:  58; 6HR MAX TEMP:  75;

BENTON HARBOR  CLEAR     53  52  96 CALM      29.95S FOG
6HR MIN TEMP:  53; 6HR MAX TEMP:  66;

COLDWATER*     CLEAR     56  55  95 CALM      29.96S
6HR MIN TEMP:  55; 6HR MAX TEMP:  70;

HILLSDALE*     CLEAR     57  57 100 CALM      29.96S FOG
HOLLAND        CLEAR     55  53  93 CALM      29.95F
6HR MIN TEMP:  55; 6HR MAX TEMP:  70;

GRAND RAPIDS   CLEAR     60  52  74 CALM      29.95S
6HR MIN TEMP:  60; 6HR MAX TEMP:  73;

KALAMAZOO      CLEAR     59  54  83 CALM      29.96S
6HR MIN TEMP:  57; 6HR MAX TEMP:  75;

STURGIS*       CLEAR     57  55  94 CALM      29.95F
THREE RIVERS*  FAIR      58  55  91 CALM      29.95F

$$
OHZ001>008-015>018-024>025-040700-
NORTHWEST OHIO

CITY           SKY/WX    TMP DP  RH WIND       PRES   REMARKS
DEFIANCE       CLEAR     57  54  89 CALM      29.94S
6HR MIN TEMP:  57; 6HR MAX TEMP:  73;

FINDLAY        CLEAR     57  52  83 CALM      29.93S
6HR MIN TEMP:  57; 6HR MAX TEMP:  71;

TOLEDO EXPRESS CLEAR     56  52  86 CALM      29.93F
6HR MIN TEMP:  54; 6HR MAX TEMP:  70;

TOLEDO METCALF CLEAR     58  53  84 CALM      29.94S
6HR MIN TEMP:  58; 6HR MAX TEMP:  70;

LIMA           CLEAR     58  55  90 CALM      29.94S
6HR MIN TEMP:  58; 6HR MAX TEMP:  70;


$$
AND FOR LAKE MICHIGAN COASTAL AND OPEN LAKE BUOY OBSERVATIONS

STATION/POSITION TEMP    WIND        PRES    VSBY  WAVE
                 AIR SEA DIR/SP/G                  HT/PER
                 (F)     (DEG/KT/KT) (MB)    (MI)  (FT/S)
CALUMET HARBOR    64     230/  2/  2   N/A
MICHIGAN CITY     61      80/  2/  3   N/A
BURNS HARBOR      64      CALM  /  1 1014.6S
SAINT JOSEPH      60     100/  2/  3   N/A
4 MI NW BRIDGMAN  61 62                N/A           0
MICHIGAN CITY     62 64  190/  2/  2   N/A           1

$$
&&



USA.gov is the U.S. government's official web portal to all federal, state and local government web resources and services.